Weather in Vzvad

Russia / Novgorod Oblast     58°09′37″N   31°28′15″E
temp.,
°C
wind,
m/s
gust,
m/s
humid.,
%
clouds,
%
prec.,
mm/h
press.,
hPa
HPBL,
m
19 january, wed
wed1900:00−8sw3695100 0.0 101883
03:00−6ssw4993100 0.1 1016246
06:00−4sw5109695 0.8 1013341
09:00−3ssw599599 1.1 1011252
12:00−2ssw61093100 0.1 1010352
15:000sw61194100 0.2 1008449
18:00+1ssw71394100 0.1 1005531
21:00+1ssw81493100 0.1 1002556
20 january, thu
thu2000:00+1ssw71389100 0.0 999403
03:00+1ssw71288100 0.0 998315
06:00+1s71486100 0.0 994394
09:00+1s81583100 0.0 992477
12:00+1s81483100 0.0 991694
15:000s81597100 0.7 988840
18:000s81490100 0.9 988696
21:00−2ssw71387100 1.0 989429
21 january, fri
fri2100:00−4s6108884 0.0 990255
03:00−5sse599299 0.1 991216
06:00−5se5988100 0.1 991277
09:00−7se499180 0.1 993165
12:00−5se61087100 0.1 994481
15:00−5ese588797 0.1 996389
18:00−8ene489484 0.0 998134
21:00−10ene469639 0.0 100069
22 january, sat
sat2200:00−9nne4796100 0.0 1002108
03:00−6nne4995100 0.2 1003273
06:00−5ne6109177 0.4 1005419
09:00−9ne5992100 0.4 1009208
12:00−10ne589184 0.0 1012206
15:00−8ne4692100 0.1 1014298
18:00−10ne479638 0.1 101797
21:00−14ne349751 0.1 102051
23 january, sun
sun2300:00−16ne239718 0.0 102335
03:00−16ne229717 0.0 102620
06:00−17nne229819 0.0 102822
09:00−18ne11987 0.0 103011
12:00−16n119623 0.0 103329
15:00−15w119738 0.0 103323
18:00−16sw119960 0.0 10349
21:00−17sw119968 0.0 10359